DW9244 Weather Reports


Display with metric or nautical units.
time (UTC)temp
F
wind
direction
speed
MPH
gust
MPH
rain 1hr
in
rain 24hr
in
rain mn
in
humidity
%
barometer
mb
20260507061546 54 180 0.0 0.0 0.00 0.21 0.01 1 1006.4
20260507060059 54 180 0.0 0.0 0.00 0.21 0.01 1 1006.5
20260507054543 54 180 0.0 0.0 0.00 0.21 0.01 1 1006.8
20260507053039 54 180 0.0 0.0 0.00 0.21 0.01 1 1007.2
20260507051531 54 180 0.0 0.0 0.00 0.21 0.01 1 1007.3
20260507050038 54 180 0.0 0.0 0.01 0.21 0.01 1 1007.4
20260507044522 54 180 0.0 0.0 0.01 0.21 0.01 1 1007.6
20260507043017 54 180 0.0 5.0 0.01 0.21 0.01 1 1007.3
20260507041522 54 230 0.0 3.0 0.01 0.21 0.01 1 1007.4
20260507040009 54 232 0.0 3.0 0.00 0.20 0.20 1 1007.5
20260507034505 54 259 1.0 5.0 0.00 0.20 0.20 1 1007.7
20260507033004 54 220 0.0 4.0 0.00 0.20 0.20 1 1007.6
20260507031600 54 223 0.0 6.0 0.00 0.20 0.20 1 1007.7
20260507030056 54 205 0.0 6.0 0.00 0.20 0.20 1 1007.6
20260507024552 54 215 0.0 5.0 0.00 0.20 0.20 1 1007.7
20260507023047 54 244 0.0 7.0 0.00 0.20 0.20 1 1007.9
20260507021544 54 240 0.0 6.0 0.00 0.20 0.20 1 1008.0
20260507020044 54 196 1.0 6.0 0.00 0.20 0.20 1 1007.8
20260507014538 54 273 1.0 8.0 0.00 0.20 0.20 1 1007.7
20260507013030 54 220 2.0 7.0 0.00 0.20 0.20 1 1008.1
20260507011526 54 188 0.0 7.0 0.00 0.20 0.20 1 1008.3
20260507010026 54 228 2.0 11.0 0.00 0.20 0.20 1 1008.5
20260507004519 54 217 0.0 10.0 0.00 0.20 0.20 1 1008.5
20260507003012 54 211 1.0 8.0 0.00 0.20 0.20 1 1008.3
20260507001511 54 276 3.0 8.0 0.00 0.20 0.20 1 1008.2
20260507000003 54 203 3.0 6.0 0.00 0.20 0.20 1 1008.1
20260506234501 54 197 4.0 12.0 0.00 0.20 0.20 1 1008.2
20260506233059 54 238 3.0 10.0 0.01 0.20 0.20 1 1008.1
20260506231607 55 271 1.0 11.0 0.04 0.20 0.20 1 1008.1
20260506230105 55 293 3.0 9.0 0.06 0.20 0.20 1 1008.2
20260506224544 55 189 3.0 20.0 0.09 0.20 0.20 1 1008.0
20260506223038 55 232 2.0 10.0 0.10 0.19 0.19 1 1007.9
20260506221538 55 232 4.0 16.0 0.08 0.16 0.16 1 1008.0
20260506220036 55 266 3.0 15.0 0.07 0.14 0.14 1 1008.1
20260506214526 55 264 2.0 14.0 0.04 0.11 0.11 1 1008.4
20260506213022 55 157 4.0 10.0 0.03 0.09 0.09 1 1008.5
20260506211518 56 236 3.0 12.0 0.02 0.08 0.08 1 1008.6
20260506210014 56 246 2.0 15.0 0.02 0.07 0.07 1 1008.7
20260506204509 56 268 4.0 14.0 0.02 0.07 0.07 1 1008.8
20260506203004 56 244 2.0 13.0 0.02 0.06 0.06 1 1009.0
20260506201601 56 224 2.0 9.0 0.04 0.06 0.06 1 1009.1
20260506200056 57 189 5.0 13.0 0.05 0.05 0.05 1 1009.1
20260506194552 57 231 4.0 12.0 0.05 0.05 0.05 1 1009.3
20260506193046 57 250 4.0 13.0 0.04 0.04 0.04 1 1009.3
20260506191548 58 221 4.0 11.0 0.02 0.02 0.02 1 1009.5
20260506190040 59 204 3.0 12.0 0.00 0.00 0.00 1 1009.7
20260506184538 60 263 3.0 16.0 0.00 0.00 0.00 1 1009.9
20260506183028 60 263 5.0 27.0 0.00 0.00 0.00 1 1010.0
20260506181524 60 201 4.0 24.0 0.00 0.00 0.00 1 1010.3
20260506180119 61 205 6.0 20.0 0.00 0.00 0.00 1 1010.2
20260506174523 61 224 7.0 19.0 0.00 0.00 0.00 1 1010.6
20260506173011 62 209 7.0 18.0 0.00 0.00 0.00 1 1010.7
20260506171508 63 175 5.0 15.0 0.00 0.00 0.00 1 1011.0
20260506170001 63 246 5.0 20.0 0.00 0.00 0.00 1 1010.8
20260506164557 63 232 5.0 21.0 0.00 0.00 0.00 1 1011.1
20260506163052 62 183 4.0 14.0 0.00 0.00 0.00 1 1011.4
20260506161548 61 257 5.0 22.0 0.00 0.00 0.00 1 1011.5
20260506160058 62 267 5.0 19.0 0.00 0.00 0.00 1 1011.8
20260506154540 65 239 4.0 19.0 0.00 0.00 0.00 1 1011.8
20260506153037 65 267 4.0 16.0 0.00 0.00 0.00 1 1011.8
20260506151539 65 299 8.0 23.0 0.00 0.00 0.00 1 1011.8
20260506150029 64 273 7.0 22.0 0.00 0.00 0.00 1 1012.0
20260506144525 63 188 6.0 14.0 0.00 0.00 0.00 1 1012.1
20260506143021 63 238 4.0 19.0 0.00 0.00 0.00 1 1012.0
20260506141520 62 279 4.0 19.0 0.00 0.00 0.00 1 1012.0
20260506140026 62 202 7.0 24.0 0.00 0.00 0.00 1 1011.7
20260506134515 62 280 6.0 14.0 0.00 0.00 0.00 1 1011.8
20260506133014 63 242 5.0 16.0 0.00 0.00 0.00 1 1012.0
20260506131507 62 250 5.0 12.0 0.00 0.00 0.00 1 1012.2
20260506130002 61 251 4.0 15.0 0.00 0.00 0.00 1 1012.4
20260506124558 61 227 5.0 13.0 0.00 0.00 0.00 1 1012.2
20260506123054 60 214 3.0 14.0 0.00 0.00 0.00 1 1012.1
20260506121553 60 227 5.0 23.0 0.00 0.00 0.00 1 1012.4
20260506120048 59 215 4.0 12.0 0.00 0.00 0.00 1 1012.4
20260506114551 58 210 6.0 10.0 0.00 0.00 0.00 1 1012.5
20260506113041 58 223 3.0 12.0 0.00 0.00 0.00 1 1012.7
20260506111539 57 250 4.0 13.0 0.00 0.00 0.00 1 1012.6
20260506110036 57 219 3.0 15.0 0.00 0.00 0.00 1 1012.6
20260506104534 57 262 3.0 13.0 0.00 0.00 0.00 1 1012.4
20260506103029 57 242 4.0 10.0 0.00 0.00 0.00 1 1012.3
20260506101521 57 191 2.0 14.0 0.00 0.00 0.00 1 1012.2
20260506100022 57 214 3.0 13.0 0.00 0.00 0.00 1 1012.2
20260506094513 57 221 5.0 11.0 0.00 0.00 0.00 1 1012.1
20260506093007 57 213 2.0 14.0 0.00 0.00 0.00 1 1012.1
20260506091503 57 239 4.0 11.0 0.00 0.00 0.00 1 1012.4
20260506090058 58 298 4.0 16.0 0.00 0.00 0.00 1 1012.3
20260506084600 58 164 4.0 14.0 0.00 0.00 0.00 1 1012.6
20260506083050 58 266 4.0 12.0 0.00 0.00 0.00 1 1012.6
20260506081548 58 159 4.0 17.0 0.00 0.00 0.00 1 1012.7
20260506073034 59 196 3.0 12.0 0.00 0.00 0.00 1 1012.8
20260506071530 59 233 6.0 12.0 0.00 0.00 0.00 1 1012.5